Terminal Aerodrome Forecast
Issued by NWS Jackson, KY

Home | Current Version | Previous Version | Text Only | Print | Product List | Glossary On
Versions: 1 2 3 4 5 6 7 8 9 10 11 12 13 14
000
FTUS43 KJKL 241720
TAFJKL
TAF
KJKL 241720Z 2418/2518 20003KT P6SM FEW060
     FM251300 21003KT P6SM BKN050=

USA.gov is the U.S. government's official web portal to all federal, state and local government web resources and services.